Location: Dortmund
(51.5019°N, 7.6520°E)
Time: 06:44:19
(UTC+02:00)

ISS - Pass Details

Date: 29 March 2019
Orbit: 408 x 410 km, 51.6° (Epoch: 22 April)

Event Time Altitude Azimuth Distance (km) Brightness Sun altitude
Rises 21:40:14 0° 281° (WNW) 2,340 1.0 -23.8°
Reaches altitude 10° 21:42:20 10° 279° (W) 1,476 -0.2 -24.0°
Enters shadow 21:44:07 29° 272° (W) 789 -2.0 -24.2°
